Capri, Italy

5:25 AM CEST on April 25, 2018 (GMT +0200)
Capri

Weather History for LIQC - December, 2013

Change the Weather History Date:

Monday, December 30, 2013

  Actual Average (LIRN) Record (LIRN)
Temperature  
Mean Temperature 54 °F -  
Max Temperature 56 °F 55 °F 60 °F (2000)
Min Temperature 50 °F 40 °F 30 °F (2014)
Degree Days  
Heating Degree Days 12    
Growing Degree Days 4 (Base 50)    
Moisture  
Dew Point 50 °F    
Average Humidity 87    
Maximum Humidity 94    
Minimum Humidity 75    
Precipitation  
Precipitation 0.31 in - - ()
Sea Level Pressure  
Sea Level Pressure 30.09 in    
Wind  
Wind Speed 1 mph ()    
Max Wind Speed 4 mph    
Max Gust Speed -    
Visibility 8.3 miles    
Events Rain    
Averages and records for this station are not official NWS values.
T = Trace of Precipitation, MM = Missing Value Source: Averaged Metar Reports

Daily Weather History Graph

Daily Weather History Graph

Search for Another Location

Airport or City:

Astronomy

Dec. 30, 2013 Rise Set
Actual Time 7:26 AM CET 4:45 PM CET
Civil Twilight 6:55 AM CET 5:16 PM CET
Nautical Twilight 6:21 AM CET 5:50 PM CET
Astronomical Twilight 5:48 AM CET 6:23 PM CET
Moon 4:57 AM CET (12/30) 3:01 PM CET (12/30)
Length of Visible Light 10h 20m
Length of Day
9h 18m
Waning Crescent, 6% of the Moon is Illuminated
Dec 30
Waning Crescent
Jan 1
New
Jan 8
First Quarter
Jan 16
Full
Jan 24
Last Quarter

Hourly Weather History & Observations

Time (CET) Temp. Dew Point Humidity Pressure Visibility Wind Dir Wind Speed Gust Speed Precip Events Conditions
12:55 AM 55.4 °F 53.6 °F 94% 30.12 in - North - - N/A   Overcast
1:00 AM 55 °F 53 °F 92% 30.14 in 6 mi Calm Calm - -   Partly Cloudy
4:00 AM 54 °F 52 °F 89% 30.14 in 6 mi Calm Calm - -   Partly Cloudy
5:55 AM 55.4 °F 51.8 °F 88% 30.09 in - North - - N/A   Overcast
6:55 AM 55.4 °F 51.8 °F 88% 30.09 in - North - - N/A   Overcast
7:00 AM 55 °F 51 °F 84% 30.12 in 12 mi 1.2 mph - -   Partly Cloudy
7:55 AM 55.4 °F 51.8 °F 88% 30.09 in - North - - N/A   Overcast
8:55 AM 55.4 °F 51.8 °F 88% 30.09 in - North - - N/A   Overcast
9:55 AM 55.4 °F 51.8 °F 88% 30.12 in - North - - N/A Rain Light Rain
10:00 AM 56 °F 53 °F 84% 30.13 in 12 mi 3.5 mph - - Rain Light Rain
10:55 AM 55.4 °F 51.8 °F 88% 30.09 in - North - - N/A   Mostly Cloudy
11:55 AM 55.4 °F 50.0 °F 82% 30.09 in - North - - N/A   Mostly Cloudy
12:55 PM 55.4 °F 50.0 °F 82% 30.09 in - North - - N/A   Mostly Cloudy
1:00 PM 56 °F 50 °F 75% 30.10 in 12 mi 3.5 mph - -   Partly Cloudy
1:55 PM 53.6 °F 51.8 °F 94% 30.06 in - North - - N/A Rain Light Rain
2:55 PM 51.8 °F 48.2 °F 88% 30.06 in - North - - N/A Rain Rain
3:55 PM 51.8 °F 48.2 °F 88% 30.06 in - North - - N/A Rain Light Rain
4:00 PM 52 °F 49 °F 85% 30.09 in 6 mi 3.5 mph - - Rain Light Rain
4:55 PM 51.8 °F 48.2 °F 88% 30.06 in - North - - N/A Rain Light Rain
5:55 PM 53.6 °F 50.0 °F 88% 30.06 in - North - - N/A Rain Rain
6:55 PM 53.6 °F 50.0 °F 88% 30.06 in - North - - N/A Rain Rain
7:00 PM 53 °F 50 °F 85% 30.08 in 6 mi Calm Calm - - Rain Rain
7:55 PM 53.6 °F 50.0 °F 88% 30.06 in - North - - N/A Rain Rain
8:55 PM 51.8 °F 48.2 °F 88% 30.06 in - North - - N/A Rain Light Rain
9:55 PM 51.8 °F 48.2 °F 88% 30.06 in - North - - N/A Rain Light Rain
10:00 PM 52 °F 48 °F 82% 30.10 in 6 mi Calm Calm - - Rain Light Rain
10:55 PM 51.8 °F 48.2 °F 88% 30.09 in - North - - N/A   Scattered Clouds
11:55 PM 50.0 °F 46.4 °F 87% 30.06 in - North - - N/A Rain Rain